Location: Stara Lesna
(49.1528°N, 20.2911°E)
Time: 19:14:46
(UTC+02:00)

Cosmos 1500 - Pass Details

Date: 13 July 2020
Orbit: 498 x 520 km, 82.5° (Epoch: 10 August)

Event Time Altitude Azimuth Distance (km) Brightness Sun altitude
Exits shadow 03:15:07 17° 226° (SW) 1,334 4.6 -11.6°
Maximum altitude 03:17:32 36° 285° (WNW) 819 4.0 -11.3°
Drops below altitude 10° 03:21:06 10° 354° (N) 1,738 6.6 -11.0°
Sets 03:23:21 0° 3° (N) 2,625 7.8 -10.8°
